[[{"header":{"parameterUnit":"m.s-1","parameterCategory":1,"la1":30.2992,"la2":30.254,"lo1":-89.0895,"lo2":-89.0443,"dy":0.0025,"dx":0.0025,"nx":19,"ny":19,"refTime":"2026-03-25T03:00:00:Z","depth":0,"parameterNumber":2,"parameterNumberName":"U-component_of_WINDS"},"data":[0,0,0,-2.9228,-2.923,-2.9327,-2.9327,-2.9459,-2.946,0,0,0,0,0,0,0,0,0,0,0,-2.9205,-2.9206,-2.9228,-2.923,-2.9326,-2.9327,-2.9459,-2.946,0,0,0,0,0,0,0,0,0,0,0,-2.9204,-2.9205,-2.9207,-2.9231,-2.9326,-2.9327,-2.9458,-2.9383,0,0,0,0,0,0,0,0,0,0,-2.9288,-2.927,-2.9205,-2.9207,-2.9231,-2.9326,-2.9327,-2.9379,-2.9387,-2.9419,0,-2.9449,0,-2.9457,-2.947,-2.947,0,0,0,-2.9226,-2.9263,-2.9285,-2.9207,-2.9232,-2.9326,-2.9282,-2.9383,-2.9393,-2.9431,-2.9451,-2.9455,-2.9459,-2.9471,-2.9471,-2.9672,-2.9673,0,0,-2.9221,-2.9224,-2.9279,-2.9292,-2.9278,-2.9279,-2.9285,-2.9389,-2.9411,-2.9451,-2.9458,-2.9461,-2.9471,-2.9473,-2.9671,-2.9673,0,0,0,-2.9208,-2.922,-2.924,-2.9287,-2.9303,-2.9282,-2.9289,-2.9406,-2.9412,-2.946,-2.9463,-2.9472,-2.9474,-2.967,-2.9672,-2.9731,0,0,0,-2.9205,-2.9213,-2.9237,-2.924,-2.9302,-2.9356,-2.9304,-2.9405,-2.9417,-2.9462,-2.9472,-2.9475,-2.9669,-2.9671,-2.9726,-2.9757,0,0,0,-2.9197,-2.9212,-2.9228,-2.924,-2.9282,-2.9354,-2.9366,-2.9407,-2.9419,-2.947,-2.9476,-2.9668,-2.967,-2.9722,-2.975,-2.9811,0,0,0,-2.9188,-2.9277,-2.9229,-2.9331,-2.9281,-2.9391,-2.9365,-2.9446,-2.9498,-2.9473,-2.9669,-2.9671,-2.9721,-2.9746,-2.9807,-2.9861,-2.9884,0,0,-2.9302,-2.9291,-2.9351,-2.9311,-2.943,-2.9376,-2.9504,-2.9547,-2.9549,-2.9631,-2.9636,-2.9728,-2.975,-2.981,-3.0018,-3.0036,0,0,0,-2.9388,-2.9431,-2.9462,-2.9512,-2.955,-2.9584,-2.9608,-2.9625,-2.9696,-2.9592,-2.9767,-2.978,-2.9815,-2.9841,-2.9856,-2.9886,-2.9684,-2.9684,-2.9684,-2.955,-2.9551,-2.9651,-2.9664,-2.9714,-2.9741,-2.9781,-2.9809,-2.9791,-2.9834,-2.9857,-2.9983,-3.0013,-3.0025,-3.0057,-2.9888,-2.9888,-2.9888,-2.9888,-2.9716,-2.9777,-2.9759,-2.9849,-2.985,-2.9925,-2.9957,-2.9944,-3.0015,-2.9965,-2.9995,-2.9938,-3.0046,-3.0073,-2.9893,-2.9892,-2.9891,-2.9891,-2.9891,-2.982,-2.9849,-2.9872,-2.9948,-3.0007,-3.0019,-3.009,-3.0088,-3.0087,-3.0118,-3.0143,-3.0142,-3.0139,-3.0131,-3.0131,-3.0132,-3.0132,-3.0132,-3.0133,-2.9918,-2.9941,-3.0001,-3.0053,-3.0088,-3.0133,-3.0167,-3.0201,-3.0238,-3.0231,-3.0231,-3.0211,-3.0057,-3.0017,-3.0139,-3.0138,-3.0137,-3.0137,-3.0136,-3.008,-3.0045,-3.0137,-3.0172,-3.0236,-3.0296,-3.0297,-3.0368,-3.0396,-3.0432,-3.0408,-3.0295,-3.0282,-3.027,-3.0236,-3.0408,-3.0408,-3.0408,-3.0408,-3.0165,-3.0162,-3.0258,-3.0315,-3.0371,-3.0383,-3.0489,-3.0519,-3.0543,-3.0561,-3.0538,-3.0495,-3.0482,-3.0477,-3.046,-3.0428,-3.0645,-3.0645,-3.0645,-3.0265,-3.0268,-3.0357,-3.0382,-3.0434,-3.0479,-3.058,-3.0647,-3.0668,-3.0655,-3.0576,-3.0566,-3.0496,-3.0474,-3.0453,-3.0427,-3.037,0,0]},{"header":{"parameterUnit":"m.s-1","parameterCategory":1,"la1":30.2992,"la2":30.254,"lo1":-89.0895,"lo2":-89.0443,"dy":0.0025,"dx":0.0025,"nx":19,"ny":19,"refTime":"2026-03-25T03:00:00:Z","depth":0,"parameterNumber":3,"parameterNumberName":"V-component_of_WINDS"},"data":[0,0,0,2.9096,2.9097,2.9137,2.9137,2.9159,2.9159,0,0,0,0,0,0,0,0,0,0,0,2.9068,2.9067,2.9096,2.9097,2.9137,2.9137,2.9159,2.9159,0,0,0,0,0,0,0,0,0,0,0,2.9068,2.9067,2.9067,2.9097,2.9137,2.9137,2.9159,2.9139,0,0,0,0,0,0,0,0,0,0,2.9105,2.9062,2.9067,2.9067,2.9097,2.9137,2.9138,2.9139,2.914,2.9129,0,2.9116,0,2.9138,2.9159,2.9159,0,0,0,2.9108,2.9061,2.9087,2.9067,2.9097,2.9137,2.9122,2.914,2.9142,2.9131,2.9116,2.9118,2.9138,2.9159,2.9159,2.9059,2.9058,0,0,2.9106,2.9065,2.9086,2.9088,2.9081,2.9121,2.9123,2.9141,2.9122,2.9116,2.9119,2.9139,2.9159,2.9159,2.906,2.9058,0,0,0,2.9092,2.9063,2.909,2.9086,2.9096,2.9122,2.9125,2.9121,2.9133,2.9119,2.9139,2.9159,2.9159,2.9061,2.9059,2.8969,0,0,0,2.9091,2.9055,2.9088,2.9063,2.9095,2.9109,2.9103,2.9132,2.9136,2.9139,2.9159,2.9159,2.9062,2.906,2.8974,2.8932,0,0,0,2.907,2.9053,2.9053,2.9061,2.9078,2.911,2.9124,2.9134,2.9147,2.9159,2.9159,2.9063,2.906,2.8979,2.894,2.8894,0,0,0,2.9036,2.8971,2.9051,2.8987,2.9077,2.9055,2.9124,2.9109,2.9109,2.9159,2.9062,2.9059,2.898,2.8944,2.8898,2.8846,2.8821,0,0,2.8931,2.8957,2.8923,2.8995,2.8949,2.9052,2.8993,2.903,2.9068,2.9059,2.9057,2.8973,2.894,2.8894,2.8699,2.8679,0,0,0,2.8876,2.885,2.8847,2.8846,2.8875,2.8896,2.8948,2.8962,2.8958,2.9056,2.8946,2.8928,2.8902,2.8879,2.8862,2.8842,2.9048,2.9048,2.9048,2.8666,2.8721,2.8667,2.8726,2.8725,2.878,2.8783,2.8812,2.8865,2.8838,2.8835,2.871,2.8682,2.8669,2.8648,2.8814,2.8813,2.8813,2.8813,2.8517,2.8488,2.8564,2.8539,2.8596,2.8575,2.8626,2.8665,2.8652,2.8717,2.8697,2.876,2.8645,2.863,2.8807,2.8808,2.8809,2.8809,2.881,2.8384,2.838,2.8401,2.8407,2.8405,2.8468,2.8453,2.8506,2.8555,2.8536,2.8537,2.8539,2.8546,2.8533,2.8533,2.8533,2.8532,2.8532,2.8532,2.8237,2.8264,2.8246,2.8273,2.828,2.8297,2.8353,2.8361,2.8384,2.8423,2.8423,2.8478,2.8625,2.866,2.8525,2.8526,2.8527,2.8528,2.8528,2.8061,2.811,2.8082,2.8089,2.8127,2.8121,2.8191,2.8203,2.8217,2.8208,2.8269,2.837,2.8399,2.8413,2.8442,2.8259,2.8259,2.8259,2.8259,2.7947,2.7969,2.7953,2.7961,2.7976,2.8037,2.8002,2.8046,2.8099,2.8111,2.8146,2.819,2.8202,2.8224,2.8242,2.8269,2.8046,2.8046,2.8046,2.7841,2.7867,2.7828,2.7883,2.7916,2.7943,2.7913,2.7918,2.7988,2.8038,2.8121,2.813,2.8202,2.8222,2.827,2.8297,2.8349,0,0]}]]